Time,TemperatureF,DewpointF,PressureIn,WindDirection,WindDirectionDegrees,WindSpeedMPH,WindSpeedGustMPH,Humidity,HourlyPrecipIn,Conditions,Clouds,dailyrainin,SoftwareType,DateUTC
2013-05-05 00:01:00,59.3,54.1,29.88,NNW,344,3.0,3.0,83,0.00,,,0.00,Wunderground v.1.13,2013-05-05 07:01:00,
2013-05-05 00:06:00,59.2,54.0,29.88,NNW,345,3.0,3.0,83,0.00,,,0.00,Wunderground v.1.13,2013-05-05 07:06:00,
2013-05-05 00:11:00,59.2,54.0,29.88,NNW,348,3.0,3.0,83,0.00,,,0.00,Wunderground v.1.13,2013-05-05 07:11:00,
2013-05-05 00:16:00,59.2,54.0,29.88,NNW,334,3.0,7.0,83,0.00,,,0.00,Wunderground v.1.13,2013-05-05 07:16:00,
2013-05-05 00:26:00,59.3,53.8,29.88,NNW,340,2.0,2.0,82,0.00,,,0.00,Wunderground v.1.13,2013-05-05 07:26:00,
2013-05-05 00:31:00,59.3,53.8,29.88,NNW,344,2.0,6.0,82,0.00,,,0.00,Wunderground v.1.13,2013-05-05 07:31:00,
2013-05-05 00:36:00,59.3,53.5,29.88,NNW,340,3.0,3.0,81,0.00,,,0.00,Wunderground v.1.13,2013-05-05 07:36:00,
2013-05-05 00:41:00,59.2,53.4,29.88,NNW,340,3.0,3.0,81,0.00,,,0.00,Wunderground v.1.13,2013-05-05 07:41:00,
2013-05-05 00:46:00,59.3,53.5,29.88,NNW,345,2.0,6.0,81,0.00,,,0.00,Wunderground v.1.13,2013-05-05 07:46:00,
2013-05-05 00:51:00,59.2,53.4,29.89,NNW,334,3.0,4.0,81,0.00,,,0.00,Wunderground v.1.13,2013-05-05 07:51:00,
2013-05-05 00:56:00,59.0,53.2,29.88,North,355,4.0,4.0,81,0.00,,,0.00,Wunderground v.1.13,2013-05-05 07:56:00,
2013-05-05 01:06:00,58.9,53.1,29.88,North,349,2.0,2.0,81,0.00,,,0.00,Wunderground v.1.13,2013-05-05 08:06:00,
2013-05-05 01:11:00,59.0,53.2,29.88,North,350,1.0,5.0,81,0.00,,,0.00,Wunderground v.1.13,2013-05-05 08:11:00,
2013-05-05 01:16:00,58.9,53.1,29.88,North,350,1.0,1.0,81,0.00,,,0.00,Wunderground v.1.13,2013-05-05 08:16:00,
2013-05-05 01:21:00,59.0,53.2,29.88,North,355,1.0,3.0,81,0.00,,,0.00,Wunderground v.1.13,2013-05-05 08:21:00,
2013-05-05 01:26:00,59.0,53.2,29.88,North,355,1.0,1.0,81,0.00,,,0.00,Wunderground v.1.13,2013-05-05 08:26:00,
2013-05-05 01:31:00,59.1,53.3,29.88,North,355,0.0,0.0,81,0.00,,,0.00,Wunderground v.1.13,2013-05-05 08:31:00,
2013-05-05 01:36:00,59.1,53.3,29.88,North,355,0.0,0.0,81,0.00,,,0.00,Wunderground v.1.13,2013-05-05 08:36:00,
2013-05-05 01:46:00,59.0,53.2,29.88,North,355,1.0,1.0,81,0.00,,,0.00,Wunderground v.1.13,2013-05-05 08:46:00,
2013-05-05 01:51:00,59.0,53.2,29.88,North,355,1.0,1.0,81,0.00,,,0.00,Wunderground v.1.13,2013-05-05 08:51:00,
2013-05-05 01:56:00,59.0,53.2,29.87,North,355,1.0,1.0,81,0.00,,,0.00,Wunderground v.1.13,2013-05-05 08:56:00,
2013-05-05 02:01:00,59.0,53.2,29.88,North,355,0.0,0.0,81,0.00,,,0.00,Wunderground v.1.13,2013-05-05 09:01:00,
2013-05-05 02:06:00,59.0,53.2,29.87,North,355,0.0,0.0,81,0.00,,,0.00,Wunderground v.1.13,2013-05-05 09:06:00,
2013-05-05 02:11:00,59.0,53.2,29.87,North,355,0.0,3.0,81,0.00,,,0.00,Wunderground v.1.13,2013-05-05 09:11:00,
2013-05-05 02:16:00,59.0,53.2,29.87,North,355,1.0,3.0,81,0.00,,,0.00,Wunderground v.1.13,2013-05-05 09:16:00,
2013-05-05 02:21:00,59.0,53.2,29.87,North,355,1.0,1.0,81,0.00,,,0.00,Wunderground v.1.13,2013-05-05 09:21:00,
2013-05-05 02:31:00,58.9,53.1,29.87,North,355,0.0,0.0,81,0.00,,,0.00,Wunderground v.1.13,2013-05-05 09:31:00,
2013-05-05 02:36:00,58.9,53.1,29.87,North,355,0.0,0.0,81,0.00,,,0.00,Wunderground v.1.13,2013-05-05 09:36:00,
2013-05-05 02:41:00,58.9,53.1,29.87,North,355,0.0,0.0,81,0.00,,,0.00,Wunderground v.1.13,2013-05-05 09:41:00,
2013-05-05 02:46:00,59.0,53.2,29.87,North,355,0.0,0.0,81,0.00,,,0.00,Wunderground v.1.13,2013-05-05 09:46:00,
2013-05-05 02:51:00,58.9,53.1,29.87,North,355,0.0,0.0,81,0.00,,,0.00,Wunderground v.1.13,2013-05-05 09:51:00,
2013-05-05 02:56:00,59.0,53.2,29.87,North,355,0.0,0.0,81,0.00,,,0.00,Wunderground v.1.13,2013-05-05 09:56:00,
2013-05-05 03:01:00,59.0,53.2,29.87,North,355,0.0,0.0,81,0.00,,,0.00,Wunderground v.1.13,2013-05-05 10:01:00,
2013-05-05 03:06:00,59.2,53.4,29.87,North,355,0.0,0.0,81,0.00,,,0.00,Wunderground v.1.13,2013-05-05 10:06:00,
2013-05-05 03:11:00,59.2,53.4,29.87,North,355,0.0,0.0,81,0.00,,,0.00,Wunderground v.1.13,2013-05-05 10:11:00,
2013-05-05 03:21:00,59.4,53.6,29.86,North,355,0.0,0.0,81,0.00,,,0.00,Wunderground v.1.13,2013-05-05 10:21:00,
2013-05-05 03:26:00,59.4,53.6,29.86,North,355,0.0,0.0,81,0.00,,,0.00,Wunderground v.1.13,2013-05-05 10:26:00,
2013-05-05 03:31:00,59.4,53.6,29.86,North,355,0.0,0.0,81,0.00,,,0.00,Wunderground v.1.13,2013-05-05 10:31:00,
2013-05-05 03:36:00,59.4,53.2,29.86,North,355,0.0,0.0,80,0.00,,,0.00,Wunderground v.1.13,2013-05-05 10:36:00,
2013-05-05 03:41:00,59.3,53.5,29.86,North,355,0.0,0.0,81,0.00,,,0.00,Wunderground v.1.13,2013-05-05 10:41:00,
2013-05-05 03:51:00,59.5,53.7,29.86,North,355,0.0,0.0,81,0.00,,,0.00,Wunderground v.1.13,2013-05-05 10:51:00,
2013-05-05 03:56:00,59.6,53.8,29.86,North,355,0.0,0.0,81,0.00,,,0.00,Wunderground v.1.13,2013-05-05 10:56:00,
2013-05-05 04:01:00,59.7,53.9,29.87,North,351,1.0,4.0,81,0.00,,,0.00,Wunderground v.1.13,2013-05-05 11:01:00,
2013-05-05 04:11:00,59.5,53.7,29.86,North,349,1.0,1.0,81,0.00,,,0.00,Wunderground v.1.13,2013-05-05 11:11:00,
2013-05-05 04:16:00,59.4,53.9,29.86,North,350,0.0,0.0,82,0.00,,,0.00,Wunderground v.1.13,2013-05-05 11:16:00,
2013-05-05 04:21:00,59.4,53.9,29.86,North,349,0.0,0.0,82,0.00,,,0.00,Wunderground v.1.13,2013-05-05 11:21:00,
2013-05-05 04:26:00,59.4,53.9,29.86,North,350,0.0,0.0,82,0.00,,,0.00,Wunderground v.1.13,2013-05-05 11:26:00,
2013-05-05 04:31:00,59.4,53.9,29.86,North,350,0.0,0.0,82,0.00,,,0.00,Wunderground v.1.13,2013-05-05 11:31:00,
2013-05-05 04:36:00,59.4,53.9,29.86,North,349,0.0,0.0,82,0.00,,,0.00,Wunderground v.1.13,2013-05-05 11:36:00,
2013-05-05 04:41:00,59.4,53.9,29.87,North,350,0.0,0.0,82,0.00,,,0.00,Wunderground v.1.13,2013-05-05 11:41:00,
2013-05-05 04:51:00,59.4,53.9,29.86,North,349,0.0,0.0,82,0.00,,,0.00,Wunderground v.1.13,2013-05-05 11:51:00,
2013-05-05 04:56:00,59.4,53.9,29.86,North,349,1.0,1.0,82,0.00,,,0.00,Wunderground v.1.13,2013-05-05 11:56:00,
2013-05-05 05:01:00,59.4,54.2,29.86,North,349,1.0,1.0,83,0.00,,,0.00,Wunderground v.1.13,2013-05-05 12:01:00,
2013-05-05 05:11:00,59.3,54.1,29.87,North,350,1.0,3.0,83,0.00,,,0.00,Wunderground v.1.13,2013-05-05 12:11:00,
2013-05-05 05:21:00,59.3,54.1,29.87,North,351,1.0,1.0,83,0.00,,,0.00,Wunderground v.1.13,2013-05-05 12:21:00,
2013-05-05 05:26:00,59.3,54.1,29.87,North,350,0.0,2.0,83,0.00,,,0.00,Wunderground v.1.13,2013-05-05 12:26:00,
2013-05-05 05:31:00,59.2,54.0,29.87,North,351,0.0,0.0,83,0.00,,,0.00,Wunderground v.1.13,2013-05-05 12:31:00,
2013-05-05 05:36:00,59.2,54.0,29.87,North,351,0.0,0.0,83,0.00,,,0.00,Wunderground v.1.13,2013-05-05 12:36:00,
2013-05-05 05:41:00,59.3,53.8,29.87,North,351,0.0,0.0,82,0.00,,,0.00,Wunderground v.1.13,2013-05-05 12:41:00,
2013-05-05 05:46:00,59.3,53.8,29.87,North,350,0.0,0.0,82,0.00,,,0.00,Wunderground v.1.13,2013-05-05 12:46:00,
2013-05-05 05:56:00,59.4,53.9,29.87,North,351,0.0,0.0,82,0.00,,,0.00,Wunderground v.1.13,2013-05-05 12:56:00,
2013-05-05 06:01:00,59.4,53.9,29.87,North,351,0.0,0.0,82,0.00,,,0.00,Wunderground v.1.13,2013-05-05 13:01:00,
2013-05-05 06:06:00,59.5,54.0,29.88,North,351,0.0,0.0,82,0.00,,,0.00,Wunderground v.1.13,2013-05-05 13:06:00,
2013-05-05 06:11:00,59.6,54.1,29.88,North,351,0.0,0.0,82,0.00,,,0.00,Wunderground v.1.13,2013-05-05 13:11:00,
2013-05-05 06:21:00,59.6,54.1,29.89,North,351,0.0,0.0,82,0.00,,,0.00,Wunderground v.1.13,2013-05-05 13:21:00,
2013-05-05 06:26:00,59.6,53.8,29.89,North,351,0.0,0.0,81,0.00,,,0.00,Wunderground v.1.13,2013-05-05 13:26:00,
2013-05-05 06:31:00,59.6,53.8,29.89,North,351,0.0,0.0,81,0.00,,,0.00,Wunderground v.1.13,2013-05-05 13:31:00,
2013-05-05 06:36:00,59.6,53.8,29.89,North,350,0.0,0.0,81,0.00,,,0.00,Wunderground v.1.13,2013-05-05 13:36:00,
2013-05-05 06:41:00,59.6,53.8,29.89,NNW,348,0.0,0.0,81,0.00,,,0.00,Wunderground v.1.13,2013-05-05 13:41:00,
2013-05-05 06:46:00,59.8,53.6,29.90,North,349,0.0,0.0,80,0.00,,,0.00,Wunderground v.1.13,2013-05-05 13:46:00,
2013-05-05 06:51:00,59.8,53.6,29.90,NNW,345,0.0,0.0,80,0.00,,,0.00,Wunderground v.1.13,2013-05-05 13:51:00,
2013-05-05 06:56:00,59.8,53.3,29.90,NNW,345,0.0,0.0,79,0.00,,,0.00,Wunderground v.1.13,2013-05-05 13:56:00,
2013-05-05 07:06:00,60.2,53.7,29.90,NNW,345,0.0,0.0,79,0.00,,,0.00,Wunderground v.1.13,2013-05-05 14:06:00,
2013-05-05 07:11:00,60.1,53.6,29.90,NNW,345,0.0,0.0,79,0.00,,,0.00,Wunderground v.1.13,2013-05-05 14:11:00,
2013-05-05 07:16:00,60.2,53.3,29.90,NNW,345,0.0,0.0,78,0.00,,,0.00,Wunderground v.1.13,2013-05-05 14:16:00,
2013-05-05 07:21:00,60.3,53.4,29.90,NNW,345,0.0,0.0,78,0.00,,,0.00,Wunderground v.1.13,2013-05-05 14:21:00,
2013-05-05 07:26:00,60.5,53.3,29.90,NNW,345,0.0,0.0,77,0.00,,,0.00,Wunderground v.1.13,2013-05-05 14:26:00,
2013-05-05 07:31:00,60.6,53.3,29.90,NNW,345,0.0,0.0,77,0.00,,,0.00,Wunderground v.1.13,2013-05-05 14:31:00,
2013-05-05 07:36:00,60.7,53.1,29.90,NNW,345,0.0,0.0,76,0.00,,,0.00,Wunderground v.1.13,2013-05-05 14:36:00,
2013-05-05 07:46:00,60.9,53.3,29.90,NNW,345,0.0,0.0,76,0.00,,,0.00,Wunderground v.1.13,2013-05-05 14:46:00,
2013-05-05 07:51:00,61.1,53.1,29.90,NNW,345,0.0,0.0,75,0.00,,,0.00,Wunderground v.1.13,2013-05-05 14:51:00,
2013-05-05 07:56:00,61.3,53.3,29.91,NNW,345,0.0,0.0,75,0.00,,,0.00,Wunderground v.1.13,2013-05-05 14:56:00,
2013-05-05 08:01:00,61.3,53.3,29.91,NNW,345,0.0,0.0,75,0.00,,,0.00,Wunderground v.1.13,2013-05-05 15:01:00,
2013-05-05 08:06:00,61.5,53.5,29.91,NNW,344,0.0,0.0,75,0.00,,,0.00,Wunderground v.1.13,2013-05-05 15:06:00,
2013-05-05 08:11:00,61.6,53.2,29.91,NNW,344,0.0,0.0,74,0.00,,,0.00,Wunderground v.1.13,2013-05-05 15:11:00,
2013-05-05 08:16:00,61.6,52.9,29.91,NNW,341,1.0,1.0,73,0.00,,,0.00,Wunderground v.1.13,2013-05-05 15:16:00,
2013-05-05 08:26:00,61.7,53.3,29.91,NNW,330,1.0,2.0,74,0.00,,,0.00,Wunderground v.1.13,2013-05-05 15:26:00,
2013-05-05 08:31:00,61.6,53.2,29.91,NNW,327,1.0,1.0,74,0.00,,,0.00,Wunderground v.1.13,2013-05-05 15:31:00,
2013-05-05 08:36:00,61.6,53.2,29.91,NW,314,1.0,1.0,74,0.00,,,0.00,Wunderground v.1.13,2013-05-05 15:36:00,
2013-05-05 08:41:00,61.6,53.2,29.91,NNW,340,1.0,1.0,74,0.00,,,0.00,Wunderground v.1.13,2013-05-05 15:41:00,
2013-05-05 08:46:00,61.9,53.5,29.92,NNW,340,0.0,0.0,74,0.00,,,0.00,Wunderground v.1.13,2013-05-05 15:46:00,
2013-05-05 08:51:00,62.1,53.7,29.92,NNW,338,0.0,3.0,74,0.00,,,0.00,Wunderground v.1.13,2013-05-05 15:51:00,
2013-05-05 09:01:00,62.1,53.3,29.92,North,360,1.0,5.0,73,0.00,,,0.00,Wunderground v.1.13,2013-05-05 16:01:00,
2013-05-05 09:06:00,62.2,53.8,29.93,North,360,2.0,4.0,74,0.00,,,0.00,Wunderground v.1.13,2013-05-05 16:06:00,
2013-05-05 09:11:00,62.3,53.9,29.93,North,355,2.0,2.0,74,0.00,,,0.00,Wunderground v.1.13,2013-05-05 16:11:00,
2013-05-05 09:21:00,63.0,54.2,29.93,NNW,345,2.0,4.0,73,0.00,,,0.00,Wunderground v.1.13,2013-05-05 16:21:00,
2013-05-05 09:26:00,63.0,53.8,29.93,North,5,3.0,8.0,72,0.00,,,0.00,Wunderground v.1.13,2013-05-05 16:26:00,
2013-05-05 09:31:00,63.0,53.8,29.93,North,360,4.0,5.0,72,0.00,,,0.00,Wunderground v.1.13,2013-05-05 16:31:00,
2013-05-05 09:41:00,62.9,54.5,29.93,NNW,340,6.0,6.0,74,0.00,,,0.00,Wunderground v.1.13,2013-05-05 16:41:00,
2013-05-05 09:46:00,62.8,54.4,29.93,North,355,6.0,6.0,74,0.00,,,0.00,Wunderground v.1.13,2013-05-05 16:46:00,
2013-05-05 09:51:00,62.8,54.8,29.93,NNE,24,5.0,6.0,75,0.00,,,0.00,Wunderground v.1.13,2013-05-05 16:51:00,
2013-05-05 09:56:00,63.0,54.9,29.93,North,350,5.0,5.0,75,0.00,,,0.00,Wunderground v.1.13,2013-05-05 16:56:00,
2013-05-05 10:01:00,63.0,54.6,29.94,NNE,13,5.0,5.0,74,0.00,,,0.00,Wunderground v.1.13,2013-05-05 17:01:00,
2013-05-05 10:11:00,62.9,54.5,29.94,North,355,5.0,5.0,74,0.00,,,0.00,Wunderground v.1.13,2013-05-05 17:11:00,
2013-05-05 10:16:00,63.0,54.9,29.94,North,349,4.0,4.0,75,0.00,,,0.00,Wunderground v.1.13,2013-05-05 17:16:00,
2013-05-05 10:21:00,63.2,54.8,29.94,North,360,4.0,7.0,74,0.00,,,0.00,Wunderground v.1.13,2013-05-05 17:21:00,
2013-05-05 10:26:00,63.1,54.3,29.94,North,355,6.0,9.0,73,0.00,,,0.00,Wunderground v.1.13,2013-05-05 17:26:00,
2013-05-05 10:31:00,63.2,54.8,29.94,North,360,7.0,7.0,74,0.00,,,0.00,Wunderground v.1.13,2013-05-05 17:31:00,
2013-05-05 10:41:00,63.1,54.3,29.95,North,10,7.0,7.0,73,0.00,,,0.00,Wunderground v.1.13,2013-05-05 17:41:00,
2013-05-05 10:46:00,63.0,54.6,29.95,NW,319,7.0,15.0,74,0.00,,,0.00,Wunderground v.1.13,2013-05-05 17:46:00,
2013-05-05 10:51:00,63.3,54.9,29.95,North,355,6.0,6.0,74,0.00,,,0.00,Wunderground v.1.13,2013-05-05 17:51:00,
2013-05-05 10:56:00,63.4,54.6,29.95,NNW,344,6.0,12.0,73,0.00,,,0.00,Wunderground v.1.13,2013-05-05 17:56:00,
2013-05-05 11:01:00,63.3,54.1,29.95,NW,324,6.0,9.0,72,0.00,,,0.00,Wunderground v.1.13,2013-05-05 18:01:00,
2013-05-05 11:11:00,64.1,54.1,29.94,North,355,6.0,6.0,70,0.00,,,0.00,Wunderground v.1.13,2013-05-05 18:11:00,
2013-05-05 11:16:00,64.9,54.5,29.95,NNW,346,6.0,10.0,69,0.00,,,0.00,Wunderground v.1.13,2013-05-05 18:16:00,
2013-05-05 11:21:00,65.3,54.9,29.94,North,5,6.0,6.0,69,0.00,,,0.00,Wunderground v.1.13,2013-05-05 18:21:00,
2013-05-05 11:26:00,65.4,54.6,29.95,North,360,6.0,9.0,68,0.00,,,0.00,Wunderground v.1.13,2013-05-05 18:26:00,
2013-05-05 11:36:00,65.2,54.4,29.95,NNW,328,7.0,11.0,68,0.00,,,0.00,Wunderground v.1.13,2013-05-05 18:36:00,
2013-05-05 11:41:00,64.2,54.6,29.95,North,350,9.0,9.0,71,0.00,,,0.00,Wunderground v.1.13,2013-05-05 18:41:00,
2013-05-05 11:46:00,63.8,54.6,29.95,North,360,9.0,9.0,72,0.00,,,0.00,Wunderground v.1.13,2013-05-05 18:46:00,
2013-05-05 11:51:00,63.6,54.4,29.94,North,355,8.0,12.0,72,0.00,,,0.00,Wunderground v.1.13,2013-05-05 18:51:00,
2013-05-05 11:56:00,63.6,54.8,29.95,North,355,9.0,10.0,73,0.00,,,0.00,Wunderground v.1.13,2013-05-05 18:56:00,
2013-05-05 12:01:00,63.4,55.0,29.95,North,360,10.0,10.0,74,0.00,,,0.00,Wunderground v.1.13,2013-05-05 19:01:00,
2013-05-05 12:11:00,63.9,55.4,29.95,North,360,8.0,15.0,74,0.00,,,0.00,Wunderground v.1.13,2013-05-05 19:11:00,
2013-05-05 12:16:00,64.0,55.2,29.94,North,351,8.0,10.0,73,0.00,,,0.00,Wunderground v.1.13,2013-05-05 19:16:00,
2013-05-05 12:21:00,64.4,55.2,29.94,North,9,8.0,8.0,72,0.00,,,0.00,Wunderground v.1.13,2013-05-05 19:21:00,
2013-05-05 12:26:00,63.8,54.6,29.95,North,11,9.0,9.0,72,0.00,,,0.00,Wunderground v.1.13,2013-05-05 19:26:00,
2013-05-05 12:31:00,64.4,55.2,29.95,NNW,348,9.0,9.0,72,0.00,,,0.00,Wunderground v.1.13,2013-05-05 19:31:00,
2013-05-05 12:36:00,63.8,55.0,29.94,NNE,22,8.0,10.0,73,0.00,,,0.00,Wunderground v.1.13,2013-05-05 19:36:00,
2013-05-05 12:46:00,63.4,54.6,29.95,North,9,8.0,8.0,73,0.00,,,0.00,Wunderground v.1.13,2013-05-05 19:46:00,
2013-05-05 12:51:00,63.6,55.2,29.95,NNE,13,8.0,8.0,74,0.00,,,0.00,Wunderground v.1.13,2013-05-05 19:51:00,
2013-05-05 12:56:00,63.9,55.4,29.94,North,355,6.0,7.0,74,0.00,,,0.00,Wunderground v.1.13,2013-05-05 19:56:00,
2013-05-05 13:01:00,64.3,55.1,29.94,North,355,6.0,6.0,72,0.00,,,0.00,Wunderground v.1.13,2013-05-05 20:01:00,
2013-05-05 13:11:00,65.2,55.2,29.94,North,11,7.0,9.0,70,0.00,,,0.00,Wunderground v.1.13,2013-05-05 20:11:00,
2013-05-05 13:16:00,65.8,54.9,29.94,North,360,7.0,11.0,68,0.00,,,0.00,Wunderground v.1.13,2013-05-05 20:16:00,
2013-05-05 13:21:00,66.2,54.9,29.93,NNW,348,6.0,6.0,67,0.00,,,0.00,Wunderground v.1.13,2013-05-05 20:21:00,
2013-05-05 13:26:00,66.1,54.4,29.94,North,9,7.0,7.0,66,0.00,,,0.00,Wunderground v.1.13,2013-05-05 20:26:00,
2013-05-05 13:31:00,66.1,54.0,29.93,North,349,7.0,11.0,65,0.00,,,0.00,Wunderground v.1.13,2013-05-05 20:31:00,
2013-05-05 13:36:00,66.6,54.5,29.94,North,5,7.0,11.0,65,0.00,,,0.00,Wunderground v.1.13,2013-05-05 20:36:00,
2013-05-05 13:41:00,66.0,53.9,29.94,North,360,8.0,13.0,65,0.00,,,0.00,Wunderground v.1.13,2013-05-05 20:41:00,
2013-05-05 13:46:00,65.5,53.8,29.94,North,11,9.0,9.0,66,0.00,,,0.00,Wunderground v.1.13,2013-05-05 20:46:00,
2013-05-05 13:51:00,65.6,54.3,29.94,North,5,8.0,8.0,67,0.00,,,0.00,Wunderground v.1.13,2013-05-05 20:51:00,
2013-05-05 13:56:00,65.4,54.2,29.94,North,360,8.0,8.0,67,0.00,,,0.00,Wunderground v.1.13,2013-05-05 20:56:00,
2013-05-05 14:01:00,65.4,54.2,29.94,NNW,342,9.0,9.0,67,0.00,,,0.00,Wunderground v.1.13,2013-05-05 21:01:00,
2013-05-05 14:11:00,64.6,56.1,29.94,North,11,10.0,11.0,74,0.00,,,0.00,Wunderground v.1.13,2013-05-05 21:11:00,
2013-05-05 14:16:00,64.2,56.1,29.94,North,360,10.0,12.0,75,0.00,,,0.00,Wunderground v.1.13,2013-05-05 21:16:00,
2013-05-05 14:21:00,63.9,56.2,29.94,WNW,297,11.0,11.0,76,0.00,,,0.00,Wunderground v.1.13,2013-05-05 21:21:00,
2013-05-05 14:26:00,63.9,56.2,29.94,NW,326,10.0,10.0,76,0.00,,,0.00,Wunderground v.1.13,2013-05-05 21:26:00,
2013-05-05 14:36:00,63.6,56.3,29.94,North,350,8.0,8.0,77,0.00,,,0.00,Wunderground v.1.13,2013-05-05 21:36:00,
2013-05-05 14:41:00,63.6,55.9,29.94,NNW,329,8.0,14.0,76,0.00,,,0.00,Wunderground v.1.13,2013-05-05 21:41:00,
2013-05-05 14:46:00,63.7,55.6,29.94,North,11,7.0,7.0,75,0.00,,,0.00,Wunderground v.1.13,2013-05-05 21:46:00,
2013-05-05 14:51:00,63.7,55.6,29.94,North,355,7.0,7.0,75,0.00,,,0.00,Wunderground v.1.13,2013-05-05 21:51:00,
2013-05-05 14:56:00,63.7,56.4,29.94,North,355,8.0,12.0,77,0.00,,,0.00,Wunderground v.1.13,2013-05-05 21:56:00,
2013-05-05 15:01:00,63.5,55.8,29.94,NNW,344,8.0,12.0,76,0.00,,,0.00,Wunderground v.1.13,2013-05-05 22:01:00,
2013-05-05 15:11:00,63.3,56.0,29.94,North,351,9.0,13.0,77,0.00,,,0.00,Wunderground v.1.13,2013-05-05 22:11:00,
2013-05-05 15:16:00,63.3,56.0,29.94,North,355,9.0,11.0,77,0.00,,,0.00,Wunderground v.1.13,2013-05-05 22:16:00,
2013-05-05 15:21:00,63.8,55.7,29.93,NNW,339,9.0,9.0,75,0.00,,,0.00,Wunderground v.1.13,2013-05-05 22:21:00,
2013-05-05 15:26:00,65.0,56.1,29.93,North,349,9.0,11.0,73,0.00,,,0.00,Wunderground v.1.13,2013-05-05 22:26:00,
2013-05-05 15:36:00,65.1,55.8,29.93,North,355,8.0,8.0,72,0.00,,,0.00,Wunderground v.1.13,2013-05-05 22:36:00,
2013-05-05 15:41:00,64.6,55.7,29.93,North,350,8.0,8.0,73,0.00,,,0.00,Wunderground v.1.13,2013-05-05 22:41:00,
2013-05-05 15:46:00,64.1,55.3,29.93,NNE,19,10.0,12.0,73,0.00,,,0.00,Wunderground v.1.13,2013-05-05 22:46:00,
2013-05-05 15:51:00,64.2,55.4,29.93,North,360,9.0,12.0,73,0.00,,,0.00,Wunderground v.1.13,2013-05-05 22:51:00,
2013-05-05 15:56:00,64.5,55.3,29.93,NNW,346,9.0,11.0,72,0.00,,,0.00,Wunderground v.1.13,2013-05-05 22:56:00,
2013-05-05 16:01:00,64.3,55.1,29.93,North,9,9.0,9.0,72,0.00,,,0.00,Wunderground v.1.13,2013-05-05 23:01:00,
2013-05-05 16:11:00,64.5,55.3,29.93,NNW,345,9.0,9.0,72,0.00,,,0.00,Wunderground v.1.13,2013-05-05 23:11:00,
2013-05-05 16:16:00,64.4,55.6,29.93,North,5,10.0,10.0,73,0.00,,,0.00,Wunderground v.1.13,2013-05-05 23:16:00,
2013-05-05 16:21:00,65.0,56.1,29.93,North,350,8.0,8.0,73,0.00,,,0.00,Wunderground v.1.13,2013-05-05 23:21:00,
2013-05-05 16:31:00,64.1,55.3,29.93,NNW,339,9.0,9.0,73,0.00,,,0.00,Wunderground v.1.13,2013-05-05 23:31:00,
2013-05-05 16:36:00,64.2,55.4,29.93,NNW,330,8.0,12.0,73,0.00,,,0.00,Wunderground v.1.13,2013-05-05 23:36:00,
2013-05-05 16:41:00,64.0,54.8,29.93,North,355,8.0,10.0,72,0.00,,,0.00,Wunderground v.1.13,2013-05-05 23:41:00,
2013-05-05 16:46:00,64.0,54.8,29.93,North,355,8.0,8.0,72,0.00,,,0.00,Wunderground v.1.13,2013-05-05 23:46:00,
2013-05-05 16:56:00,64.0,55.5,29.93,North,360,6.0,6.0,74,0.00,,,0.00,Wunderground v.1.13,2013-05-05 23:56:00,
2013-05-05 17:01:00,63.5,55.4,29.93,NNE,30,8.0,9.0,75,0.00,,,0.00,Wunderground v.1.13,2013-05-06 00:01:00,
2013-05-05 17:06:00,63.2,55.5,29.93,NW,321,9.0,9.0,76,0.00,,,0.00,Wunderground v.1.13,2013-05-06 00:06:00,
2013-05-05 17:11:00,63.3,55.6,29.93,North,360,8.0,8.0,76,0.00,,,0.00,Wunderground v.1.13,2013-05-06 00:11:00,
2013-05-05 17:16:00,63.3,55.2,29.93,North,355,7.0,7.0,75,0.00,,,0.00,Wunderground v.1.13,2013-05-06 00:16:00,
2013-05-05 17:21:00,63.4,55.3,29.93,NNE,17,7.0,7.0,75,0.00,,,0.00,Wunderground v.1.13,2013-05-06 00:21:00,
2013-05-05 17:26:00,63.6,55.9,29.93,North,355,6.0,6.0,76,0.00,,,0.00,Wunderground v.1.13,2013-05-06 00:26:00,
2013-05-05 17:36:00,63.4,55.7,29.93,NNE,15,6.0,6.0,76,0.00,,,0.00,Wunderground v.1.13,2013-05-06 00:36:00,
2013-05-05 17:41:00,63.4,55.7,29.93,NNW,342,6.0,6.0,76,0.00,,,0.00,Wunderground v.1.13,2013-05-06 00:41:00,
2013-05-05 17:46:00,63.4,55.3,29.93,NNW,344,7.0,10.0,75,0.00,,,0.00,Wunderground v.1.13,2013-05-06 00:46:00,
2013-05-05 17:51:00,63.6,55.9,29.93,North,355,7.0,7.0,76,0.00,,,0.00,Wunderground v.1.13,2013-05-06 00:51:00,
2013-05-05 17:56:00,63.8,55.7,29.93,NNE,28,5.0,5.0,75,0.00,,,0.00,Wunderground v.1.13,2013-05-06 00:56:00,
2013-05-05 18:01:00,64.2,55.7,29.93,North,5,5.0,6.0,74,0.00,,,0.00,Wunderground v.1.13,2013-05-06 01:01:00,
2013-05-05 18:11:00,64.8,55.2,29.93,North,360,6.0,6.0,71,0.00,,,0.00,Wunderground v.1.13,2013-05-06 01:11:00,
2013-05-05 18:16:00,64.6,55.0,29.93,North,360,6.0,6.0,71,0.00,,,0.00,Wunderground v.1.13,2013-05-06 01:16:00,
2013-05-05 18:21:00,64.4,54.8,29.93,NW,315,6.0,7.0,71,0.00,,,0.00,Wunderground v.1.13,2013-05-06 01:21:00,
2013-05-05 18:26:00,64.3,55.5,29.93,North,355,7.0,7.0,73,0.00,,,0.00,Wunderground v.1.13,2013-05-06 01:26:00,
2013-05-05 18:31:00,63.9,55.4,29.92,North,349,6.0,6.0,74,0.00,,,0.00,Wunderground v.1.13,2013-05-06 01:31:00,
2013-05-05 18:41:00,63.6,55.2,29.93,North,5,5.0,5.0,74,0.00,,,0.00,Wunderground v.1.13,2013-05-06 01:41:00,
2013-05-05 18:46:00,63.5,55.8,29.93,North,350,6.0,7.0,76,0.00,,,0.00,Wunderground v.1.13,2013-05-06 01:46:00,
2013-05-05 18:51:00,63.3,55.6,29.93,NNW,336,6.0,6.0,76,0.00,,,0.00,Wunderground v.1.13,2013-05-06 01:51:00,
2013-05-05 18:56:00,63.2,55.5,29.93,North,355,5.0,5.0,76,0.00,,,0.00,Wunderground v.1.13,2013-05-06 01:56:00,
2013-05-05 19:01:00,63.2,55.9,29.93,NNW,342,4.0,7.0,77,0.00,,,0.00,Wunderground v.1.13,2013-05-06 02:01:00,
2013-05-05 19:11:00,63.0,55.7,29.93,NNE,21,5.0,5.0,77,0.00,,,0.00,Wunderground v.1.13,2013-05-06 02:11:00,
2013-05-05 19:16:00,63.0,55.7,29.93,NNE,13,3.0,4.0,77,0.00,,,0.00,Wunderground v.1.13,2013-05-06 02:16:00,
2013-05-05 19:21:00,62.9,55.6,29.93,North,351,3.0,5.0,77,0.00,,,0.00,Wunderground v.1.13,2013-05-06 02:21:00,
2013-05-05 19:26:00,62.9,55.6,29.93,NNW,344,3.0,5.0,77,0.00,,,0.00,Wunderground v.1.13,2013-05-06 02:26:00,
2013-05-05 19:36:00,62.9,55.9,29.94,NNW,348,4.0,4.0,78,0.00,,,0.00,Wunderground v.1.13,2013-05-06 02:36:00,
2013-05-05 19:41:00,62.7,55.7,29.94,NNW,333,5.0,5.0,78,0.00,,,0.00,Wunderground v.1.13,2013-05-06 02:41:00,
2013-05-05 19:46:00,62.6,55.6,29.94,North,355,5.0,5.0,78,0.00,,,0.00,Wunderground v.1.13,2013-05-06 02:46:00,
2013-05-05 19:51:00,62.5,55.9,29.94,NNW,342,6.0,6.0,79,0.00,,,0.00,Wunderground v.1.13,2013-05-06 02:51:00,
2013-05-05 19:56:00,62.5,56.2,29.94,North,9,6.0,6.0,80,0.00,,,0.00,Wunderground v.1.13,2013-05-06 02:56:00,
2013-05-05 20:01:00,62.4,56.1,29.94,North,360,5.0,5.0,80,0.00,,,0.00,Wunderground v.1.13,2013-05-06 03:01:00,
2013-05-05 20:11:00,62.2,56.3,29.95,North,355,5.0,5.0,81,0.00,,,0.00,Wunderground v.1.13,2013-05-06 03:11:00,
2013-05-05 20:16:00,62.2,56.3,29.95,NNW,348,5.0,5.0,81,0.00,,,0.00,Wunderground v.1.13,2013-05-06 03:16:00,
2013-05-05 20:21:00,62.1,56.2,29.94,NNW,340,2.0,2.0,81,0.00,,,0.00,Wunderground v.1.13,2013-05-06 03:21:00,
2013-05-05 20:26:00,62.1,56.2,29.95,North,355,1.0,1.0,81,0.00,,,0.00,Wunderground v.1.13,2013-05-06 03:26:00,
2013-05-05 20:31:00,62.0,56.1,29.95,NNW,348,1.0,5.0,81,0.00,,,0.00,Wunderground v.1.13,2013-05-06 03:31:00,
2013-05-05 20:41:00,61.9,56.0,29.95,North,351,1.0,1.0,81,0.00,,,0.00,Wunderground v.1.13,2013-05-06 03:41:00,
2013-05-05 20:46:00,61.8,55.9,29.95,North,5,1.0,1.0,81,0.00,,,0.00,Wunderground v.1.13,2013-05-06 03:46:00,
2013-05-05 20:51:00,61.7,55.8,29.95,NNW,341,1.0,1.0,81,0.00,,,0.00,Wunderground v.1.13,2013-05-06 03:51:00,
2013-05-05 20:56:00,61.8,55.9,29.95,NNE,12,1.0,1.0,81,0.00,,,0.00,Wunderground v.1.13,2013-05-06 03:56:00,
2013-05-05 21:01:00,61.8,55.9,29.95,NNW,344,1.0,1.0,81,0.00,,,0.00,Wunderground v.1.13,2013-05-06 04:01:00,
2013-05-05 21:06:00,61.9,56.0,29.95,NNW,331,0.0,0.0,81,0.00,,,0.00,Wunderground v.1.13,2013-05-06 04:06:00,
2013-05-05 21:11:00,61.9,56.0,29.95,North,360,1.0,1.0,81,0.00,,,0.00,Wunderground v.1.13,2013-05-06 04:11:00,
2013-05-05 21:16:00,61.9,56.0,29.96,North,5,1.0,1.0,81,0.00,,,0.00,Wunderground v.1.13,2013-05-06 04:16:00,
2013-05-05 21:21:00,61.9,56.0,29.96,NNW,346,1.0,1.0,81,0.00,,,0.00,Wunderground v.1.13,2013-05-06 04:21:00,
2013-05-05 21:26:00,61.9,56.0,29.96,NNE,18,2.0,2.0,81,0.00,,,0.00,Wunderground v.1.13,2013-05-06 04:26:00,
2013-05-05 21:31:00,61.9,56.0,29.96,NNE,18,1.0,1.0,81,0.00,,,0.00,Wunderground v.1.13,2013-05-06 04:31:00,
2013-05-05 21:41:00,62.0,56.4,29.96,NNE,15,0.0,1.0,82,0.00,,,0.00,Wunderground v.1.13,2013-05-06 04:41:00,
2013-05-05 21:46:00,62.0,56.4,29.96,North,355,1.0,1.0,82,0.00,,,0.00,Wunderground v.1.13,2013-05-06 04:46:00,
2013-05-05 21:51:00,61.9,56.3,29.96,North,355,1.0,1.0,82,0.00,,,0.00,Wunderground v.1.13,2013-05-06 04:51:00,
2013-05-05 21:56:00,61.9,56.3,29.96,NNW,329,1.0,1.0,82,0.00,,,0.00,Wunderground v.1.13,2013-05-06 04:56:00,
2013-05-05 22:01:00,61.9,56.3,29.96,NNW,344,2.0,2.0,82,0.00,,,0.00,Wunderground v.1.13,2013-05-06 05:01:00,
2013-05-05 22:11:00,61.8,56.2,29.96,North,9,1.0,2.0,82,0.00,,,0.00,Wunderground v.1.13,2013-05-06 05:11:00,
2013-05-05 22:16:00,61.8,56.2,29.96,North,350,1.0,2.0,82,0.00,,,0.00,Wunderground v.1.13,2013-05-06 05:16:00,
2013-05-05 22:21:00,61.8,56.2,29.96,North,360,1.0,1.0,82,0.00,,,0.00,Wunderground v.1.13,2013-05-06 05:21:00,
2013-05-05 22:26:00,61.8,56.2,29.96,North,9,1.0,1.0,82,0.00,,,0.00,Wunderground v.1.13,2013-05-06 05:26:00,
2013-05-05 22:31:00,61.8,56.2,29.97,North,5,1.0,1.0,82,0.00,,,0.00,Wunderground v.1.13,2013-05-06 05:31:00,
2013-05-05 22:41:00,61.9,56.3,29.97,NNW,346,3.0,3.0,82,0.00,,,0.00,Wunderground v.1.13,2013-05-06 05:41:00,
2013-05-05 22:46:00,61.9,56.3,29.97,North,9,4.0,10.0,82,0.00,,,0.00,Wunderground v.1.13,2013-05-06 05:46:00,
2013-05-05 22:51:00,61.9,56.3,29.97,NNW,346,5.0,5.0,82,0.00,,,0.00,Wunderground v.1.13,2013-05-06 05:51:00,
2013-05-05 22:56:00,61.8,56.2,29.97,NNW,348,6.0,7.0,82,0.00,,,0.00,Wunderground v.1.13,2013-05-06 05:56:00,
2013-05-05 23:01:00,61.7,56.1,29.97,NNW,348,5.0,5.0,82,0.00,,,0.00,Wunderground v.1.13,2013-05-06 06:01:00,
2013-05-05 23:06:00,61.7,56.5,29.97,North,360,4.0,4.0,83,0.00,,,0.00,Wunderground v.1.13,2013-05-06 06:06:00,
2013-05-05 23:16:00,61.6,56.4,29.97,NNW,346,2.0,3.0,83,0.00,,,0.00,Wunderground v.1.13,2013-05-06 06:16:00,
2013-05-05 23:21:00,61.6,56.4,29.97,North,355,2.0,7.0,83,0.00,,,0.00,Wunderground v.1.13,2013-05-06 06:21:00,
2013-05-05 23:26:00,61.6,56.4,29.96,NW,321,2.0,2.0,83,0.00,,,0.00,Wunderground v.1.13,2013-05-06 06:26:00,
2013-05-05 23:31:00,61.5,56.3,29.97,North,5,2.0,4.0,83,0.00,,,0.00,Wunderground v.1.13,2013-05-06 06:31:00,
2013-05-05 23:36:00,61.5,56.3,29.97,North,350,3.0,3.0,83,0.00,,,0.00,Wunderground v.1.13,2013-05-06 06:36:00,
2013-05-05 23:41:00,61.5,56.3,29.97,North,355,2.0,2.0,83,0.00,,,0.00,Wunderground v.1.13,2013-05-06 06:41:00,
2013-05-05 23:46:00,61.5,56.3,29.97,North,351,2.0,2.0,83,0.00,,,0.00,Wunderground v.1.13,2013-05-06 06:46:00,
2013-05-05 23:51:00,61.5,56.3,29.97,North,349,3.0,3.0,83,0.00,,,0.00,Wunderground v.1.13,2013-05-06 06:51:00,